• In Czech Republic
  • List of Countries
  • For 7 days
  • Water Temperature
  • Satellite Maps
  • Weather Map
  • Weather Widgets
  • user-avatar
    Login

    Hourly Weather Whitehorse

    Today, 18 June, Monday

    Time Temperature Precipitation Wind Pressure Humidity
    00:00 +9°C° 0 mm 3 mps 689 mmHg 88%
    01:00 +9°C° 0 mm 3 mps 690 mmHg 89%
    02:00 +9°C° 0 mm 3 mps 690 mmHg 90%
    03:00 +9°C° 0 mm 3 mps 690 mmHg 91%
    04:00 +10°C° 0 mm 3 mps 690 mmHg 84%
    05:00 +12°C° 0 mm 3 mps 691 mmHg 77%
    06:00 +13°C° 0 mm 3 mps 691 mmHg 70%
    07:00 +15°C° 0 mm 4 mps 691 mmHg 60%
    08:00 +18°C° 0 mm 4 mps 691 mmHg 51%
    09:00 +20°C° 0 mm 4 mps 691 mmHg 42%
    10:00 +21°C° 0 mm 5 mps 691 mmHg 38%
    11:00 +22°C° 0 mm 6 mps 691 mmHg 35%
    12:00 +23°C° 0 mm 6 mps 691 mmHg 32%
    13:00 +23°C° 0 mm 6 mps 691 mmHg 32%
    14:00 +23°C° 0 mm 6 mps 690 mmHg 32%
    15:00 +23°C° 0 mm 7 mps 690 mmHg 32%
    16:00 +23°C° 0 mm 6 mps 690 mmHg 35%
    17:00 +22°C° 0 mm 6 mps 690 mmHg 37%
    18:00 +21°C° 0 mm 6 mps 690 mmHg 39%
    19:00 +20°C° 0 mm 5 mps 689 mmHg 46%
    20:00 +18°C° 0 mm 4 mps 689 mmHg 53%
    21:00 +16°C° 0 mm 3 mps 689 mmHg 60%
    22:00 +14°C° 0 mm 3 mps 689 mmHg 65%
    23:00 +13°C° 0 mm 3 mps 689 mmHg 70%

    Tomorrow, 19 June, Tuesday

    Time Temperature Precipitation Wind Pressure Humidity
    00:00 +13°C° 0 mm 3 mps 689 mmHg 75%
    01:00 +12°C° 0 mm 3 mps 689 mmHg 79%
    02:00 +11°C° 0 mm 3 mps 688 mmHg 82%
    03:00 +10°C° 0 mm 3 mps 688 mmHg 86%
    04:00 +12°C° 0 mm 3 mps 688 mmHg 79%
    05:00 +13°C° 0 mm 4 mps 689 mmHg 73%
    06:00 +14°C° 0 mm 4 mps 689 mmHg 67%
    07:00 +17°C° 0 mm 4 mps 689 mmHg 60%
    08:00 +18°C° 0 mm 4 mps 689 mmHg 53%
    09:00 +20°C° 0 mm 5 mps 689 mmHg 46%
    10:00 +21°C° 0 mm 5 mps 689 mmHg 43%
    11:00 +22°C° 0 mm 5 mps 689 mmHg 39%
    12:00 +23°C° 0 mm 6 mps 689 mmHg 35%
    13:00 +23°C° 0 mm 6 mps 689 mmHg 35%
    14:00 +23°C° 0 mm 6 mps 689 mmHg 34%
    15:00 +24°C° 0 mm 6 mps 689 mmHg 33%
    16:00 +23°C° 0 mm 6 mps 689 mmHg 35%
    17:00 +23°C° 0 mm 5 mps 689 mmHg 36%
    18:00 +22°C° 0 mm 5 mps 689 mmHg 37%
    19:00 +20°C° 0 mm 4 mps 689 mmHg 44%
    20:00 +18°C° 0 mm 4 mps 689 mmHg 50%
    21:00 +17°C° 0 mm 3 mps 688 mmHg 57%
    22:00 +14°C° 0 mm 3 mps 688 mmHg 62%
    23:00 +14°C° 0 mm 2 mps 689 mmHg 68%

    Day after tomorrow, 20 June, Wednesday

    Time Temperature Precipitation Wind Pressure Humidity
    00:00 +13°C° 0 mm 2 mps 689 mmHg 74%
    01:00 +13°C° 0 mm 2 mps 689 mmHg 75%
    02:00 +12°C° 0 mm 2 mps 689 mmHg 76%
    03:00 +12°C° 0 mm 1 mps 689 mmHg 77%
    04:00 +13°C° 0 mm 1 mps 689 mmHg 71%
    05:00 +15°C° 0 mm 1 mps 689 mmHg 66%
    06:00 +16°C° 0 mm 1 mps 689 mmHg 60%
    07:00 +19°C° 0 mm 1 mps 689 mmHg 53%
    08:00 +20°C° 0 mm 1 mps 689 mmHg 46%
    09:00 +22°C° 0 mm 1 mps 689 mmHg 40%
    10:00 +23°C° 0 mm 2 mps 689 mmHg 36%
    11:00 +25°C° 0 mm 2 mps 689 mmHg 32%
    12:00 +26°C° 0 mm 3 mps 689 mmHg 28%
    13:00 +26°C° 0 mm 3 mps 688 mmHg 27%
    14:00 +27°C° 0 mm 3 mps 688 mmHg 26%
    15:00 +27°C° 0 mm 4 mps 688 mmHg 25%
    16:00 +27°C° 0 mm 3 mps 687 mmHg 26%
    17:00 +26°C° 0 mm 3 mps 687 mmHg 27%
    18:00 +26°C° 0 mm 3 mps 687 mmHg 28%
    19:00 +24°C° 0 mm 3 mps 686 mmHg 34%
    20:00 +21°C° 0 mm 2 mps 686 mmHg 40%
    21:00 +19°C° 0 mm 2 mps 686 mmHg 46%
    22:00 +18°C° 0 mm 2 mps 686 mmHg 50%
    23:00 +17°C° 0 mm 2 mps 686 mmHg 54%

    21 June, Thursday

    Time Temperature Precipitation Wind Pressure Humidity
    00:00 +16°C° 0 mm 2 mps 685 mmHg 58%
    01:00 +15°C° 0 mm 1 mps 685 mmHg 61%
    02:00 +14°C° 0 mm 1 mps 685 mmHg 65%
    03:00 +13°C° 0 mm 1 mps 685 mmHg 69%
    04:00 +15°C° 0 mm 1 mps 685 mmHg 64%
    05:00 +16°C° 0 mm 1 mps 685 mmHg 59%
    06:00 +19°C° 0 mm 1 mps 685 mmHg 54%
    07:00 +19°C° 0 mm 2 mps 685 mmHg 48%
    08:00 +21°C° 0 mm 2 mps 685 mmHg 42%
    09:00 +24°C° 0 mm 2 mps 685 mmHg 35%
    10:00 +25°C° 0 mm 2 mps 685 mmHg 32%
    11:00 +26°C° 0 mm 3 mps 685 mmHg 29%
    12:00 +27°C° 0 mm 3 mps 685 mmHg 26%
    13:00 +27°C° 0 mm 3 mps 685 mmHg 25%
    14:00 +27°C° 0 mm 4 mps 685 mmHg 25%
    15:00 +27°C° 0 mm 4 mps 685 mmHg 25%
    16:00 +26°C° 0 mm 4 mps 684 mmHg 27%
    17:00 +25°C° 0 mm 4 mps 684 mmHg 30%
    18:00 +23°C° 0 mm 4 mps 684 mmHg 32%
    19:00 +21°C° 0 mm 4 mps 684 mmHg 37%
    20:00 +20°C° 0 mm 3 mps 684 mmHg 42%
    21:00 +18°C° 0 mm 2 mps 684 mmHg 47%
    22:00 +17°C° 0 mm 2 mps 684 mmHg 51%
    23:00 +16°C° 0 mm 2 mps 684 mmHg 55%

    22 June, Friday

    Time Temperature Precipitation Wind Pressure Humidity
    00:00 +15°C° 0 mm 2 mps 684 mmHg 58%
    01:00 +14°C° 0 mm 2 mps 684 mmHg 61%
    02:00 +14°C° 0 mm 2 mps 684 mmHg 65%
    03:00 +13°C° 0 mm 2 mps 685 mmHg 68%
    04:00 +14°C° 0 mm 2 mps 685 mmHg 66%
    05:00 +14°C° 0 mm 2 mps 685 mmHg 65%
    06:00 +15°C° 0 mm 2 mps 685 mmHg 63%
    07:00 +16°C° 0 mm 2 mps 685 mmHg 57%
    08:00 +17°C° 0 mm 3 mps 685 mmHg 51%
    09:00 +18°C° 0 mm 3 mps 686 mmHg 46%
    10:00 +19°C° 0 mm 3 mps 686 mmHg 44%
    11:00 +19°C° 0 mm 4 mps 686 mmHg 42%
    12:00 +20°C° 0 mm 4 mps 686 mmHg 40%
    13:00 +19°C° 0 mm 4 mps 686 mmHg 40%
    14:00 +19°C° 0 mm 4 mps 686 mmHg 40%
    15:00 +19°C° 0 mm 4 mps 685 mmHg 40%
    16:00 +19°C° 0 mm 4 mps 685 mmHg 40%
    17:00 +19°C° 0 mm 4 mps 685 mmHg 39%
    18:00 +18°C° 0 mm 4 mps 685 mmHg 39%
    19:00 +17°C° 0 mm 4 mps 685 mmHg 44%
    20:00 +14°C° 0 mm 3 mps 685 mmHg 49%
    21:00 +13°C° 0 mm 3 mps 685 mmHg 53%
    22:00 +12°C° 0 mm 2 mps 685 mmHg 59%
    23:00 +10°C° 0 mm 2 mps 685 mmHg 65%

    23 June, Saturday

    Time Temperature Precipitation Wind Pressure Humidity
    00:00 +9°C° 0 mm 2 mps 685 mmHg 70%
    01:00 +8°C° 0 mm 2 mps 685 mmHg 74%
    02:00 +8°C° 0 mm 2 mps 685 mmHg 77%
    03:00 +7°C° 0 mm 2 mps 685 mmHg 81%
    04:00 +8°C° 0.1 mm 2 mps 685 mmHg 77%
    05:00 +9°C° 0.1 mm 2 mps 685 mmHg 74%
    06:00 +10°C° 0.1 mm 2 mps 685 mmHg 70%
    07:00 +10°C° 0.1 mm 2 mps 685 mmHg 66%
    08:00 +12°C° 0.1 mm 2 mps 685 mmHg 62%
    09:00 +13°C° 0.1 mm 2 mps 685 mmHg 59%
    10:00 +13°C° 0.3 mm 2 mps 684 mmHg 59%
    11:00 +13°C° 0.3 mm 1 mps 684 mmHg 60%
    12:00 +14°C° 0.3 mm 1 mps 684 mmHg 60%
    13:00 +14°C° 0.4 mm 2 mps 684 mmHg 59%
    14:00 +14°C° 0.4 mm 2 mps 683 mmHg 59%
    15:00 +15°C° 0.4 mm 2 mps 683 mmHg 58%
    16:00 +14°C° 0.4 mm 2 mps 683 mmHg 61%
    17:00 +14°C° 0.4 mm 2 mps 683 mmHg 65%
    18:00 +13°C° 0.4 mm 2 mps 683 mmHg 69%
    19:00 +12°C° 0.6 mm 2 mps 683 mmHg 74%
    20:00 +10°C° 0.6 mm 2 mps 683 mmHg 80%
    21:00 +10°C° 0.6 mm 2 mps 683 mmHg 85%
    22:00 +9°C° 1 mm 2 mps 683 mmHg 87%
    23:00 +9°C° 1 mm 2 mps 683 mmHg 89%
    Show more